sat.trackr.live / text

‹ back to catalog

CAS500-2 RIDESHARE OBJE*

NORAD 69009 · 2026-100AF

PAYLOAD ACTIVE UNKNOWN

§ Identity

Operator
Country
TBD
Launch date
2026-05-03
Launch site
AFWTR
Launch vehicle
Mass (kg)
RCS (m²)

External: N2YO · Heavens-Above · Gunter

§ Orbital elements

Epoch: 2026-09-19T23:14:20.630112Z

Period
94.62 min
Inclination
97.3900°
Eccentricity
0.0005418
Mean motion
15.21922001 rev/d
Perigee alt
496.3 km
Apogee alt
503.8 km
Semi-major
6,878.2 km
B*
3.1884e-4
RAAN
159.0702°
Arg perigee
31.9557°
Mean anomaly
328.2007°
Rev number
2,121

§ Raw data

CAS500-2 RIDESHARE OBJE*1 69009U 26100AF  26262.96829433  .00007198  00000+0  31884-3 0  99962 69009  97.3900 159.0702 0005418  31.9557 328.2007 15.21922001 21217

JSON: /api/v1/satellites/69009 · /tle

For live sub-satellite position, see the globe view (requires WebGL).

§ Visibility from observer

Set your observer location to see the next 7 days of passes ≥ 10°. The values pass through the URL so the page stays shareable.

No JS? Fill the form by hand. The geolocation button needs JavaScript.